Other Surface Observations
Issued by NWS Upton, NY

Current Version | Previous Version | Text Only | Print | Product List | Glossary Off
Versions: 1 2 3 4 5 6 7 8 9 10 11 12 13 14 15 16 17 18 19 20 21 22 23 24 25 26 27 28 29 30 31 32 33 34 35 36 37 38 39 40 41 42 43 44 45 46 47 48 49 50
000 SXUS51 KOKX 291057 OSOOKX NEW YORK CITY METROPOLITAN AREA WEATHER ROUNDUP National Weather Service New York NY 700 AM EDT MON MAY 29 2017 CITY SKY/WX TMP DP RH WIND PRES REMARKS Central Park CLOUDY 56 55 97 VRB6 29.92R LaGuardia APRT LGT RAIN 57 54 89 E10 29.89S Kennedy INTL LGT RAIN 57 57 100 E6 29.90S Newark Liberty LGT RAIN 58 55 90 E9 29.89S Teterboro APRT LGT RAIN 57 54 89 E6 29.89R Bronx Bot Gard N/A 55 54 94 E1 29.91R Wall St Helipt CLOUDY 57 55 94 NE12 29.90R >>>>>>>>>>>>>>>>>>>>>>>>>>>>>>>>> KEY <<<<<<<<<<<<<<<<<<<<<<<<<<<<<<< > SKY/WX - SKY CONDITION/PRESENT : R : WCI - WIND CHILL INDEX < > WEATHER : E : VSB - VISIBILITY IN MILES < > TMP - TEMPERATURE IN DEG F : M : HX - HEAT INDEX < > DP - DEW POINT TEMPERATURE : A : TC - TEMPERATURE IN < > RH - RELATIVE HUMIDITY : R : CELSIUS < > WIND - DIRECTION/SPEED (MPH) : K : VRB - VARIABLE WIND DIR < > PRES - PRESSURE (IN HG) : S : < >>>>>>>>>>>>>>>>>>>>>>>>>>>>>>>>> KEY <<<<<<<<<<<<<<<<<<<<<<<<<<<<<<<

USA.gov is the U.S. government's official web portal to all federal, state and local government web resources and services.